Minneapolis, MN

8:12 PM CST on February 06, 2016 (GMT -0600)
Minneapolis-Saint Paul International

Weather History for KMSP - May, 2014

Change the Weather History Date:

Saturday, May 17, 2014

  Actual Average Record
Temperature  
Mean Temperature 54 °F 60 °F  
Max Temperature 66 °F 70 °F 93 °F (1987)
Min Temperature 41 °F 49 °F 31 °F (1915)
Degree Days  
Heating Degree Days 11 7  
Month to date heating degree days 216 148  
Since 1 July heating degree days 8548 7466  
Cooling Degree Days 0 1  
Month to date cooling degree days 0 15  
Year to date cooling degree days 0 20  
Growing Degree Days 4 (Base 50)    
Moisture  
Dew Point 29 °F    
Average Humidity 45    
Maximum Humidity 65    
Minimum Humidity 24    
Precipitation  
Precipitation 0.00 in 0.11 in 1.17 in (1938)
Month to date precipitation 1.63 1.85  
Year to date precipitation 11.55 8.07  
Snow  
Snow 0.00 in 0.00 in T in (1890)
Month to date snowfall 0.0 0.0  
Since 1 July snowfall 69.8 54.4  
Snow Depth 0.00 in    
Sea Level Pressure  
Sea Level Pressure 30.03 in    
Wind  
Wind Speed 7 mph (WSW)    
Max Wind Speed 18 mph    
Max Gust Speed 26 mph    
Visibility 10 miles    
Events      
T = Trace of Precipitation, MM = Missing Value Source: NWS Daily Summary

Daily Weather History Graph

Daily Weather History Graph

Search for Another Location

Airport or City:

Trip Planner

Search our weather history database for the weather conditions in past years. The results will help you decide how hot, cold, wet, or windy it might be!

Date:

Astronomy

May. 17, 2014 Rise Set
Actual Time 5:42 AM CDT 8:37 PM CDT
Civil Twilight 5:07 AM CDT 9:11 PM CDT
Nautical Twilight 4:23 AM CDT 9:55 PM CDT
Astronomical Twilight 3:32 AM CDT 10:47 PM CDT
Moon 11:37 PM CDT (5/17) 8:25 AM CDT (5/17)
Length of Visible Light 16h 04m
Length of Day
14h 55m
Waning Gibbous, 89% of the Moon is Illuminated
May 17
Waning Gibbous
May 21
Last Quarter
May 28
New
Jun 5
First Quarter
Jun 12
Full

Hourly Weather History & Observations

Time (CDT) Temp. Windchill Dew Point Humidity Pressure Visibility Wind Dir Wind Speed Gust Speed Precip Events Conditions
12:53 AM 44.1 °F 40.8 °F 28.9 °F 55% 30.07 in 10.0 mi West 5.8 mph - N/A   Clear
1:53 AM 43.0 °F 39.5 °F 30.9 °F 62% 30.06 in 10.0 mi WSW 5.8 mph - N/A   Partly Cloudy
2:53 AM 42.1 °F 39.2 °F 30.0 °F 62% 30.06 in 10.0 mi WSW 4.6 mph - N/A   Partly Cloudy
3:53 AM 42.1 °F - 30.0 °F 62% 30.06 in 10.0 mi Calm Calm - N/A   Mostly Cloudy
4:53 AM 42.1 °F 39.2 °F 30.9 °F 65% 30.06 in 10.0 mi SSW 4.6 mph - N/A   Mostly Cloudy
5:53 AM 41.0 °F 38.0 °F 30.0 °F 65% 30.06 in 10.0 mi SSW 4.6 mph - N/A   Mostly Cloudy
6:53 AM 41.0 °F 38.0 °F 30.0 °F 65% 30.07 in 10.0 mi SW 4.6 mph - N/A   Partly Cloudy
7:53 AM 46.0 °F 44.8 °F 30.0 °F 54% 30.07 in 10.0 mi Variable 3.5 mph - N/A   Partly Cloudy
8:53 AM 52.0 °F - 30.9 °F 45% 30.06 in 10.0 mi WSW 6.9 mph - N/A   Partly Cloudy
9:53 AM 55.9 °F - 27.0 °F 33% 30.05 in 10.0 mi West 13.8 mph - N/A   Partly Cloudy
10:53 AM 57.9 °F - 28.9 °F 33% 30.05 in 10.0 mi WSW 9.2 mph - N/A   Scattered Clouds
11:53 AM 60.1 °F - 30.0 °F 32% 30.04 in 10.0 mi Variable 6.9 mph 17.3 mph N/A   Scattered Clouds
12:53 PM 62.1 °F - 30.9 °F 31% 30.02 in 10.0 mi SW 9.2 mph 19.6 mph N/A   Scattered Clouds
1:53 PM 62.1 °F - 28.0 °F 28% 30.01 in 10.0 mi West 13.8 mph 19.6 mph N/A   Scattered Clouds
2:53 PM 64.0 °F - 28.0 °F 26% 30.01 in 10.0 mi West 6.9 mph 17.3 mph N/A   Scattered Clouds
3:53 PM 64.9 °F - 28.0 °F 25% 30.00 in 10.0 mi WNW 11.5 mph 24.2 mph N/A   Mostly Cloudy
4:53 PM 64.0 °F - 27.0 °F 25% 30.00 in 10.0 mi West 4.6 mph 18.4 mph N/A   Mostly Cloudy
5:53 PM 64.9 °F - 26.1 °F 23% 29.99 in 10.0 mi SW 4.6 mph - N/A   Scattered Clouds
6:53 PM 64.9 °F - 30.0 °F 27% 29.99 in 10.0 mi West 11.5 mph - N/A   Scattered Clouds
7:53 PM 64.0 °F - 28.0 °F 26% 30.00 in 10.0 mi WSW 8.1 mph - N/A   Partly Cloudy
8:53 PM 62.6 °F - 28.4 °F 27% 29.99 in 10.0 mi SW 5.8 mph - N/A   Partly Cloudy
9:53 PM 60.1 °F - 28.9 °F 31% 30.01 in 10.0 mi SSW 4.6 mph - N/A   Partly Cloudy
10:53 PM 57.9 °F - 28.9 °F 33% 30.02 in 10.0 mi SSW 6.9 mph - N/A   Scattered Clouds
11:53 PM 55.9 °F - 30.0 °F 37% 30.02 in 10.0 mi SSW 5.8 mph - N/A   Mostly Cloudy